Flight Track Log - Related Links

Times and Time Zones

All times are in EDT time to prevent confusion due to time zone crossing. See the SWA1719 flight status page for this flight to view local times or setup timezone preferences in your user account.

Time Position Orientation Groundspeed Altitude Reporting Facility
EDT Latitude Longitude Course Direction KTS MPH feet Rate Location/Type
11:50AM 29.6308 -95.2847 174° South 134 154 800  Level Houston Center
11:51AM 29.5800 -95.2789 174° South 216 249 3,600 2,615 Climbing Houston Center
11:52AM 29.5672 -95.2758 168° South 208 239 4,200 2,509 Climbing Houston Center
11:52AM 29.5253 -95.2567 158° South 232 267 5,900 2,419 Climbing Houston Center
11:53AM 29.5078 -95.2511 165° South 221 254 6,700 3,443 Climbing Houston Center
11:53AM 29.4600 -95.2333 162° South 237 273 9,400 3,097 Climbing Houston Center
11:54AM 29.4475 -95.2214 140° Southeast 249 287 9,900 1,869 Climbing Houston Center
11:54AM 29.4503 -95.1506 87° East 364 419 11,300 2,806 Climbing Houston Center
11:55AM 29.4731 -95.1108 57° Northeast 351 404 12,800 3,172 Climbing Houston Center
11:56AM 29.5275 -95.0192 56° Northeast 355 409 15,900 2,758 Climbing Houston Center
11:57AM 29.5836 -94.9231 56° Northeast 365 420 18,500 2,613 Climbing Houston Center
11:58AM 29.6406 -94.8217 57° Northeast 378 435 21,300 2,468 Climbing Houston Center
11:59AM 29.6994 -94.7167 57° Northeast 391 450 23,600 2,064 Climbing Houston Center
12:00PM 29.7139 -94.5533 84° East 426 490 25,600 1,872 Climbing Houston Center
12:01PM 29.7178 -94.4089 88° East 449 517 27,500 1,790 Climbing Houston Center
12:02PM 29.7117 -94.2603 93° East 459 528 29,300 1,548 Climbing Houston Center
12:03PM 29.6936 -94.0953 97° East 474 545 30,700 1,355 Climbing Houston Center
12:04PM 29.6847 -93.9383 94° East 493 567 32,100 1,548 Climbing Houston Center
12:05PM 29.6844 -93.7786 90° East 501 577 33,900 1,694 Climbing Houston Center
12:06PM 29.6825 -93.6211 91° East 497 572 35,600 1,500 Climbing Houston Center
12:07PM 29.6797 -93.4331 91° East 496 571 37,000 1,104 Climbing Houston Center
12:08PM 29.6767 -93.2744 91° East 494 568 37,900 864 Climbing Houston Center
12:09PM 29.6758 -93.1203 90° East 494 568 38,800 532 Climbing Houston Center
12:10PM 29.6736 -92.9622 91° East 498 573 39,000 97 Climbing Houston Center
12:11PM 29.6717 -92.8028 91° East 501 577 39,000  Level Houston Center
12:12PM 29.6669 -92.6083 92° East 511 588 39,000  Level Houston Center
12:13PM 29.6639 -92.4431 91° East 518 596 39,000  Level Houston Center
12:15PM 29.6417 -92.2817 99° East 519 597 39,000  Level Houston Center
12:16PM 29.6100 -92.1219 103° East 515 593 39,000  Level Houston Center
12:17PM 29.5775 -91.9597 103° East 520 598 39,000  Level Houston Center
12:18PM 29.5436 -91.7997 104° East 519 597 39,000  Level Houston Center
12:19PM 29.5042 -91.6086 103° East 517 595 39,000  Level Houston Center
12:20PM 29.4706 -91.4486 104° East 518 596 39,000  Level Houston Center
12:21PM 29.4350 -91.2883 104° East 519 597 39,000  Level Houston Center
12:22PM 29.4006 -91.1294 104° East 518 596 39,000  Level Houston Center
12:23PM 29.3642 -90.9689 105° East 520 598 39,000  Level Houston Center
12:24PM 29.3236 -90.7758 104° East 521 600 39,000  Level Houston Center
12:25PM 29.2900 -90.6156 103° East 521 600 39,000  Level Houston Center
12:26PM 29.2536 -90.4547 105° East 523 602 39,000  Level Houston Center
12:27PM 29.2178 -90.2939 104° East 524 603 39,000  Level Houston Center
12:28PM 29.1814 -90.1353 105° East 520 598 39,000  Level Houston Center
12:29PM 29.1422 -89.9431 103° East 521 600 39,000  Level Houston Center
12:30PM 29.1094 -89.7817 103° East 522 601 39,000  Level Houston Center
12:31PM 29.0761 -89.6222 103° East 522 601 39,000  Level Houston Center
12:32PM 29.0431 -89.4603 103° East 526 605 39,000  Level Houston Center
12:33PM 29.0097 -89.3000 103° East 521 600 39,000  Level Houston Center
12:34PM 28.9689 -89.1072 104° East 523 602 39,000  Level Houston Center
12:35PM 28.9358 -88.9461 103° East 522 601 39,000  Level Houston Center
12:36PM 28.9011 -88.7858 104° East 524 603 39,000  Level Houston Center
12:37PM 28.8622 -88.6256 105° East 525 604 39,000  Level Houston Center
12:38PM 28.8189 -88.4675 107° East 525 604 39,000  Level Houston Center
12:39PM 28.7739 -88.3092 108° East 525 604 39,000  Level Houston Center
12:40PM 28.7214 -88.1189 107° East 527 606 39,000  Level Houston Center
12:41PM 28.6747 -87.9519 108° East 527 606 39,000  Level Houston Center
12:42PM 28.6297 -87.7936 108° East 528 608 39,000 -387 Level Houston Center
12:44PM 28.5844 -87.6358 108° East 526 605 38,200 -772 Descending Houston Center
12:44PM 28.5581 -87.5433 108° East 526 605 37,700 -727 Descending Jacksonville Center
12:45PM 28.5178 -87.3928 107° East 518 596 37,000 -350 Descending Jacksonville Center
12:46PM 28.4708 -87.2397 109° East 507 583 37,000  Level Jacksonville Center
12:47PM 28.4278 -87.0892 108° East 507 583 37,000  Level Jacksonville Center
12:48PM 28.3828 -86.9317 108° East 507 583 37,000  Level Jacksonville Center
12:49PM 28.3394 -86.7836 108° East 508 585 37,000  Level Jacksonville Center
12:50PM 28.2939 -86.6286 108° East 508 585 37,000  Level Jacksonville Center
12:51PM 28.2483 -86.4739 108° East 509 586 37,000 -50 Level Jacksonville Center
12:52PM 28.2022 -86.3214 109° East 509 586 36,900 -550 Descending Jacksonville Center
12:53PM 28.1564 -86.1622 108° East 509 586 35,900 -958 Descending Jacksonville Center
12:54PM 28.1100 -86.0125 109° East 503 579 35,000 -280 Descending Jacksonville Center
12:56PM 28.0003 -85.6444 109° East 536 617 35,000  Level Miami Center
12:57PM 27.9536 -85.4883 109° East 536 617 35,000 -150 Level Miami Center
12:58PM 27.9044 -85.3322 110° East 522 601 34,700 -1,000 Descending Miami Center
12:59PM 27.8803 -85.1781 100° East 522 601 33,000 -850 Descending Miami Center
01:00PM 27.8625 -85.0150 97° East 508 585 33,000  Level Miami Center
01:01PM 27.8664 -84.8722 88° East 514 592 33,000  Level Miami Center
01:02PM 27.8689 -84.7131 89° East 509 586 33,000  Level Miami Center
01:03PM 27.8756 -84.5539 87° East 509 586 33,000 -900 Level Miami Center
01:04PM 27.8817 -84.3947 87° East 509 586 31,200 -2,200 Descending Miami Center
01:05PM 27.8836 -84.2400 89° East 503 579 28,600 -2,500 Descending Miami Center
01:06PM 27.8892 -84.0903 88° East 492 566 26,200 -2,420 Descending Miami Center
01:07PM 27.8919 -83.9519 89° East 464 534 23,800 -2,300 Descending Miami Center
01:08PM 27.8944 -83.8136 89° East 446 513 21,600 -2,150 Descending Miami Center
01:09PM 27.8986 -83.6850 88° East 428 493 19,500 -2,000 Descending Miami Center
01:10PM 27.9022 -83.5608 88° East 405 466 17,600 -2,132 Descending Miami Center
01:11PM 27.9078 -83.4389 87° East 394 453 15,200 -2,350 Descending Miami Center
01:12PM 27.9092 -83.3217 89° East 380 437 12,900 -1,700 Descending Miami Center
01:13PM 27.9142 -83.2094 87° East 370 426 11,800 -1,050 Descending Miami Center
01:14PM 27.9372 -83.1097 75° East 345 397 10,800 -1,000 Descending Miami Center
01:15PM 27.9811 -83.0086 64° Northeast 324 373 9,800 -900 Descending Miami Center
01:16PM 28.0036 -82.9253 73° East 304 350 9,000 -400 Descending Miami Center
01:17PM 28.0114 -82.8389 84° East 281 323 9,000 -100 Level Miami Center
01:18PM 28.0294 -82.7553 76° East 275 316 8,800 -1,000 Descending Miami Center
01:19PM 28.0475 -82.6692 77° East 275 316 7,000 -1,897 Descending Miami Center
01:20PM 28.0833 -82.6000 60° Northeast 219 252 5,100 -2,410 Descending Tampa TRACON
01:21PM 28.1000 -82.5500 69° East 230 265 2,300 -1,750 Descending Tampa TRACON
01:22PM 28.0667 -82.5333 156° South 177 204 1,600 -744 Descending Tampa TRACON
01:23PM 28.0333 -82.5333 180° South 150 173 800 -787 Descending Tampa TRACON
01:25PM 27.9755 -82.5332 202° Southwest  Level Estimated
01:32PM 27.9755 -82.5332 19° North  Level Estimated
01:33PM 27.9755 -82.5332 19° North  Level Estimated

Login

Don't have an account? Register now (free) for customized features, flight alerts, and more!